Regional Weather Roundup
Issued by NWS

Home | Current Version | Previous Version | Text Only | Print | Product List | Glossary On
Versions: 1 2 3 4 5 6 7 8 9 10 11 12 13 14 15 16 17 18 19 20 21 22 23 24 25 26 27 28 29 30 31 32 33 34 35 36 37 38 39 40 41 42 43 44 45 46 47 48 49 50
000
ASUS44 KBMX 222310
RWRAL

ALABAMA REGIONAL WEATHER ROUNDUP
NATIONAL WEATHER SERVICE BIRMINGHAM AL
500 PM CST SAT NOV 22 2014

NOTE: "FAIR" INDICATES FEW OR NO CLOUDS BELOW 12,000 FEET
WITH NO SIGNIFICANT WEATHER AND/OR OBSTRUCTIONS TO VISIBILITY.

THE REMARK "TC" DENOTES TEMPERATURE IN DEGREES CELSIUS.

ALZ001>011-014-016>018-020-230000-
NORTH ALABAMA

CITY           SKY/WX    TMP DP  RH WIND       PRES   REMARKS
MUSCLE SHOALS  MOCLDY    60  43  53 SE3       30.14F
HUNTSVILLE     MOCLDY    59  40  49 E10       30.16F
DECATUR        MOCLDY    60  42  51 E7        30.16F
HALEYVILLE     FAIR      58  48  69 SE5       30.16F
GADSDEN        CLOUDY    63  43  48 E6        30.18F
$$

ALZ012-013-022-023-030>036-040>044-230000-
WEST CENTRAL ALABAMA

CITY           SKY/WX    TMP DP  RH WIND       PRES   REMARKS
TUSCALOOSA     CLOUDY    66  50  56 E6        30.12F
$$

ALZ015-024>027-033>036-040>044-230000-
CENTRAL ALABAMA

CITY           SKY/WX    TMP DP  RH WIND       PRES   REMARKS
BIRMINGHAM     CLOUDY    63  47  55 E6        30.17F
MONTGOMERY     CLOUDY    65  52  62 E9        30.17S
SHELBY CO ARPT CLOUDY    64  50  60 VRB3      30.16F
MAXWELL AFB    CLOUDY    65  53  64 E15       30.17S
GREENVILLE     CLOUDY    59  55  87 SE6       30.15S
$$

ALZ019-021-028-029-037-038-045>048-230000-
EAST CENTRAL ALABAMA

CITY           SKY/WX    TMP DP  RH WIND       PRES   REMARKS
ANNISTON       CLOUDY    62  43  49 E6        30.20S
ALEXANDER CITY CLOUDY    64  46  50 E9        30.19F
AUBURN         CLOUDY    59  43  55 E10       30.23F
$$

ALZ051>064-230000-
SOUTHWEST ALABAMA

CITY           SKY/WX    TMP DP  RH WIND       PRES   REMARKS
MOBILE         CLOUDY    62  58  86 E12       30.10F
BROOKLEY FIELD CLOUDY    63  59  87 E8        30.12S
EVERGREEN      LGT RAIN  60  57  89 E6        30.15S FOG
$$

ALZ049-050-065>069-230000-
SOUTHEAST ALABAMA

CITY           SKY/WX    TMP DP  RH WIND       PRES   REMARKS
DOTHAN         CLOUDY    59  57  93 E8        30.19F
OZARK          DRIZZLE   58  57  96 NE8       30.15F
TROY           CLOUDY    61  52  72 E8        30.17F
EUFAULA        CLOUDY    61  51  70 E5        30.19F
$$


USA.gov is the U.S. government's official web portal to all federal, state and local government web resources and services.